Flag for Japan Weather past 2 weeks in Kawasaki, Japan

Now
48 °F

Passing clouds.


Feels Like: 43 °F
Forecast: 41 / 51 °F
Wind: 13 mph from West

Location: Tokyo International Airport

Current Time: Dec 22, 2014 at 10:50:08 AM

Latest Report: Dec 22, 2014 at 10:00 AM


Visibility: N/A

Pressure: 29.83 "Hg

Humidity: 23%

Dew point: 12 °F

Location of KawasakiLocation

Historic Weather in Kawasaki — Graph

°F

Kawasaki temperature yesterday

Maximum temperature yesterday: 54 °F (at 1:30 PM)
Minimum temperature yesterday: 41 °F (at 4:30 AM)
Average temperature yesterday: 49 °F

Past Weeks' High & Low Weather Summary

 TemperatureHumidityPressure
High63 °F (Dec 11, 1:30 PM)93% (Dec 16, 2:47 PM)30.45 "Hg (Dec 16, 2:47 PM)
Low34 °F (Dec 18, 2:00 AM)18% (Dec 18, 2:00 PM)29.24 "Hg (Dec 16, 7:30 PM)
Average46 °F54%29.98 "Hg
* Reported Dec 7 9:00 AM — Dec 22 9:30 AM, Kawasaki, Weather by CustomWeather, © 2014

Note: Actual official high and low records may vary slightly from our data, if they occured in-between our weather recording intervals... More about our weather records

Advertising

Kawasaki weather history for previous 24 hours

 ConditionsComfort  
Time TempWeatherWind HumidityBarometerVisibility
9:30 AM
Dec 22
48 °FPassing clouds.12 mph27%29.83 "HgN/A
9:00 AM46 °FPassing clouds.9 mph32%29.83 "HgN/A
8:30 AM45 °FPassing clouds.7 mph37%29.83 "HgN/A
8:00 AM43 °FPassing clouds.8 mph53%29.83 "HgN/A
7:30 AM41 °FPassing clouds.3 mph66%29.83 "HgN/A
6:30 AM41 °FPassing clouds.5 mph70%29.83 "HgN/A
6:00 AM39 °FPassing clouds.6 mph81%29.83 "HgN/A
5:30 AM41 °FPassing clouds.7 mph76%29.80 "HgN/A
5:00 AM41 °FPassing clouds.8 mph70%29.80 "HgN/A
4:30 AM43 °FPassing clouds.8 mph71%29.77 "HgN/A
4:00 AM43 °FPassing clouds.14 mph66%29.77 "HgN/A
3:30 AM43 °FPassing clouds.12 mph57%29.77 "HgN/A
3:00 AM45 °FPassing clouds.14 mph53%29.74 "HgN/A
2:30 AM46 °FPartly cloudy.13 mph50%29.74 "HgN/A
2:00 AM46 °FPassing clouds.12 mph50%29.74 "HgN/A
1:30 AM46 °FPassing clouds.7 mph53%29.74 "HgN/A
1:00 AM46 °FPartly cloudy.6 mph76%29.74 "HgN/A
12:30 AM46 °FPassing clouds.7 mph71%29.74 "HgN/A
12:00 AM45 °FPartly cloudy.9 mph76%29.74 "HgN/A
11:30 PM
Dec 21
45 °FPassing clouds.9 mph76%29.77 "HgN/A
11:00 PM45 °FPassing clouds.8 mph76%29.74 "HgN/A
10:30 PM46 °FClear.7 mph71%29.74 "Hg10 mi
10:00 PM46 °FClear.10 mph66%29.74 "Hg10 mi
9:30 PM48 °FClear.10 mph62%29.74 "Hg10 mi
9:00 PM48 °FPassing clouds.9 mph54%29.74 "HgN/A
8:30 PM48 °FPassing clouds.8 mph58%29.77 "HgN/A
8:00 PM50 °FPassing clouds.3 mph62%29.77 "HgN/A
7:30 PM50 °FPassing clouds.7 mph71%29.77 "HgN/A
7:00 PM50 °FPassing clouds.10 mph62%29.74 "HgN/A
6:30 PM52 °FPassing clouds.6 mph54%29.77 "HgN/A
6:00 PM52 °FPassing clouds.6 mph54%29.77 "HgN/A
5:30 PM52 °FPassing clouds.6 mph58%29.77 "HgN/A
5:00 PM52 °FPassing clouds.7 mph58%29.74 "HgN/A
4:30 PM52 °FPartly sunny.1 mph54%29.74 "HgN/A
4:00 PM52 °FPartly sunny.2 mph50%29.74 "HgN/A
3:30 PM52 °FPartly sunny.5 mph50%29.74 "HgN/A
3:00 PM52 °FPartly sunny.6 mph50%29.74 "HgN/A
2:30 PM52 °FPartly sunny.3 mph50%29.77 "HgN/A
2:00 PM52 °FPartly sunny.6 mph50%29.77 "HgN/A
1:30 PM54 °FBroken clouds.6 mph47%29.74 "HgN/A
1:00 PM52 °FScattered clouds.6 mph54%29.74 "HgN/A
12:30 PM52 °FPartly sunny.5 mph50%29.74 "HgN/A
12:00 PM52 °FPartly sunny.6 mph50%29.77 "HgN/A
11:30 AM52 °FPartly sunny.5 mph54%29.80 "HgN/A
11:00 AM50 °FPartly sunny.3 mph58%29.83 "HgN/A
10:30 AM50 °FPartly sunny.3 mph54%29.83 "HgN/A
10:00 AM50 °FPartly sunny.5 mph58%29.83 "HgN/A
Weather by CustomWeather, © 2014

See weather overviewHow to use our weather pages